Weather Roundup
Issued by NWS Chicago, IL

Home | Current Version | Previous Version | Text Only | Print | Product List | Glossary Off
Versions: 1 2 3 4 5 6 7 8 9 10 11 12 13 14 15 16 17 18 19 20 21 22 23 24 25 26 27 28 29 30 31 32 33 34 35 36 37 38 39 40 41 42 43 44 45 46 47 48 49 50

000
NZUS59 KLOT 040700
HRRLOT

CHICAGO AREA WEATHER ROUNDUP
NATIONAL WEATHER SERVICE CHICAGO/ROMEOVILLE IL
200 AM CDT SAT JUL 04 2015

NOTE: "FAIR" INDICATES FEW OR NO CLOUDS BELOW 12,000 FEET WITH NO
SIGNIFICANT WEATHER AND/OR OBSTRUCTIONS TO VISIBILITY.

* THESE STATIONS ARE NOT UNDER NWS QUALITY CONTROL. THEY ALSO MAY NOT
  REPORT WEATHER SUCH AS PRECIPITATION OR FOG.

ILZ005-006-012>014-019>023-040800-
NORTHEAST ILLINOIS

CITY           SKY/WX    TMP DP  RH WIND       PRES   REMARKS
OHARE          PTCLDY    62  54  74 CALM      29.95F
MIDWAY         MOCLDY    65  56  72 CALM      29.95S
AURORA         CLEAR     59  55  87 CALM      29.96F
WAUKEGAN       NOT AVBL
DUPAGE AIRPORT CLEAR     58  55  90 CALM      29.95F
WHEELING       CLEAR     59  54  83 CALM      29.96F
NORTHERLY IS     N/A     66  54  65 W3          N/A
$$

WIZ051-052-058>065-066-070>072-040800-
SOUTHEAST WISCONSIN

CITY           SKY/WX    TMP DP  RH WIND       PRES   REMARKS
MILWAUKEE      PTCLDY    62  52  69 SW6       29.94S
KENOSHA*       CLEAR     55  52  89 SW3       29.95S
RACINE*        CLEAR     61  51  70 W3        29.96S
$$

INZ001>003-010>013-019-020-040800-
NORTHWEST INDIANA

CITY           SKY/WX    TMP DP  RH WIND       PRES   REMARKS
GARY*          NOT AVBL
MICHIGAN CITY* NOT AVBL
RENSSELAER*    NOT AVBL
$$

LMZ740>746-040800-
SOUTHERN LAKE MICHIGAN

STATION/POSITION TIME  SKY/WX   TEMP WIND        PRES    VSBY
                                AIR  DIR/SP/G
                 (UTC)          (F)  (DEG/KT/KT) (MB)    (MI)
HARRISON CRIB    0600            65  200/  2/  2   N/A
BURNHAM HARBOR   0600            64   CALM  /  2   N/A
CALUMET HARBOR   0600            62  270/  1/  1   N/A
BURNS HARBOR     0640            62  210/  3/  5 1014.9R
MICHIGAN CITY    0600            60  140/  2/  3   N/A
$$

ABBREVIATIONS USED IN REMARKS
   TC - TEMPERATURE IN CELSIUS
  WCI - WIND CHILL INDEX
   HX - HEAT INDEX
  VSB - VISIBILITY
$$


USA.gov is the U.S. government's official web portal to all federal, state and local government web resources and services.